[[{"header":{"parameterUnit":"m.s-1","parameterCategory":1,"la1":30.2991,"la2":30.254,"lo1":-89.0895,"lo2":-89.0444,"dy":0.0017,"dx":0.0017,"nx":28,"ny":28,"refTime":"2023-09-01T21:00:00:Z","depth":0,"parameterNumber":2,"parameterNumberName":"U-component_of_WINDS"},"data":[0,0,0,0,0,0,0,0,0,0,0,0,0,0,0,0,0,0,0,0,0,0,0,0,0,0,0,0,0,0,0,0,0,0,0,0,0,0,0,0,0,0,0,0,0,0,0,0,0,0,0,0,0,0,0,0,0,0,-0.6816,-0.6816,0,-0.6819,-0.6819,-0.6819,-0.6847,-0.6848,-0.6849,-0.6849,-0.6851,-0.685,-0.685,0,0,0,0,0,0,0,0,0,0,0,0,0,-0.6833,-0.6832,-0.6816,-0.6816,-0.6816,-0.6819,-0.6819,-0.6819,-0.6847,-0.6848,-0.6849,-0.685,-0.6851,-0.685,-0.685,0,0,0,0,0,0,0,0,0,0,0,0,0,-0.683,-0.6832,-0.6816,-0.6831,-0.6832,-0.6819,-0.6819,-0.6819,-0.6847,-0.6848,-0.6849,-0.685,-0.6851,-0.6851,-0.685,-0.6823,0,0,-0.6847,-0.6846,0,0,0,0,0,0,0,0,-0.683,-0.6829,-0.6828,-0.683,-0.6831,-0.6834,-0.6826,-0.682,-0.6847,-0.6841,-0.6849,-0.6851,-0.6844,-0.6844,-0.6842,-0.6823,-0.6823,-0.6847,-0.6846,-0.6846,-0.6846,0,0,0,0,0,0,0,-0.683,-0.6829,-0.6817,-0.6828,-0.683,-0.6836,-0.6837,-0.6825,-0.6837,-0.6842,-0.6844,-0.6844,-0.6845,-0.6843,-0.6843,-0.6823,-0.6847,-0.6846,-0.6845,-0.6845,-0.678,-0.6779,0,0,0,0,0,0,-0.6828,-0.6829,-0.6817,-0.6817,-0.6833,-0.6835,-0.6836,-0.6832,-0.6837,-0.6839,-0.6843,-0.6845,-0.6844,-0.6844,-0.6843,-0.681,-0.6846,-0.6845,-0.6844,-0.6781,-0.678,-0.6779,0,0,0,0,0,0,-0.6829,-0.6827,-0.6817,-0.6824,-0.6823,-0.6834,-0.6829,-0.6831,-0.6829,-0.6838,-0.684,-0.6839,-0.6845,-0.6844,-0.6827,-0.6811,-0.6844,-0.6844,-0.6783,-0.6781,-0.6779,-0.6746,0,0,0,0,0,0,-0.6829,-0.6827,-0.6817,-0.6823,-0.6823,-0.6802,-0.6828,-0.6831,-0.6828,-0.6831,-0.6834,-0.6836,-0.6846,-0.6829,-0.6826,-0.681,-0.6843,-0.6784,-0.6782,-0.678,-0.6749,-0.6743,-0.6739,0,0,0,0,0,-0.683,-0.6808,-0.6817,-0.6815,-0.6811,-0.6801,-0.6801,-0.6813,-0.6826,-0.6816,-0.6822,-0.6836,-0.6813,-0.6827,-0.6824,-0.6808,-0.6785,-0.6783,-0.678,-0.6751,-0.6745,-0.6739,0,0,0,0,0,0,-0.6799,-0.6809,-0.6819,-0.6799,-0.6799,-0.6806,-0.6794,-0.6806,-0.6802,-0.6804,-0.6819,-0.682,-0.68,-0.6803,-0.6817,-0.6781,-0.6802,-0.6798,-0.678,-0.6774,-0.677,-0.6769,-0.6842,0,0,0,0,0,-0.679,-0.6782,-0.6791,-0.6772,-0.6772,-0.6783,-0.6779,-0.6788,-0.6789,-0.6789,-0.6793,-0.6793,-0.6785,-0.678,-0.6774,-0.675,-0.675,-0.6737,-0.6732,-0.6728,-0.6725,-0.671,-0.6704,-0.677,-0.677,-0.677,0,0,-0.6772,-0.6776,-0.677,-0.6766,-0.6768,-0.6758,-0.6783,-0.6772,-0.6764,-0.6787,-0.6771,-0.6774,-0.6775,-0.6754,-0.6745,-0.6755,-0.6707,-0.6725,-0.6722,-0.672,-0.6707,-0.6701,-0.6695,-0.6768,-0.6769,-0.6769,0,0,-0.6732,-0.6735,-0.6719,-0.672,-0.6722,-0.6729,-0.6725,-0.673,-0.6733,-0.6718,-0.6734,-0.6726,-0.6713,-0.6713,-0.671,-0.667,-0.6682,-0.6668,-0.6642,-0.6628,-0.6623,-0.6618,-0.6602,-0.6596,-0.6665,-0.6665,-0.6665,0,-0.6708,-0.6695,-0.671,-0.6697,-0.6695,-0.6715,-0.6699,-0.6699,-0.6698,-0.6695,-0.6707,-0.6691,-0.6693,-0.6671,-0.6662,-0.666,-0.6655,-0.6667,-0.6622,-0.6618,-0.6614,-0.6599,-0.6593,-0.6663,-0.6663,-0.6663,-0.6664,0,-0.6665,-0.6656,-0.6642,-0.6641,-0.6638,-0.6623,-0.6635,-0.6629,-0.6638,-0.6644,-0.6627,-0.6631,-0.6625,-0.6621,-0.663,-0.66,-0.6606,-0.662,-0.664,-0.6605,-0.6591,-0.6586,-0.666,-0.6661,-0.6661,-0.6662,0,0,-0.6606,-0.6613,-0.6608,-0.6607,-0.661,-0.6603,-0.6589,-0.6584,-0.6578,-0.6577,-0.6565,-0.6554,-0.6566,-0.6564,-0.6573,-0.6561,-0.6527,-0.6577,-0.6577,-0.6566,-0.6492,-0.648,-0.6474,-0.6536,-0.6535,-0.6534,-0.6492,0,-0.6567,-0.6544,-0.6556,-0.6531,-0.6522,-0.6541,-0.6529,-0.6529,-0.6534,-0.6526,-0.6532,-0.6523,-0.6541,-0.654,-0.6529,-0.6534,-0.6512,-0.6537,-0.6523,-0.6523,-0.6521,-0.6467,-0.6454,-0.6414,-0.6486,-0.6486,-0.6485,0,-0.6518,-0.6514,-0.6488,-0.6493,-0.6489,-0.6478,-0.6474,-0.6467,-0.6467,-0.6471,-0.6468,-0.648,-0.6466,-0.6488,-0.6467,-0.6484,-0.6479,-0.6481,-0.6479,-0.6477,-0.65,-0.6461,-0.6402,-0.6395,-0.6477,-0.6477,-0.6478,0,-0.6475,-0.6464,-0.6447,-0.6446,-0.6451,-0.6442,-0.6444,-0.6446,-0.6441,-0.6437,-0.6434,-0.6429,-0.6425,-0.642,-0.643,-0.6445,-0.6408,-0.6431,-0.641,-0.641,-0.64,-0.64,-0.6337,-0.64,-0.64,-0.64,-0.64,0,-0.6429,-0.6412,-0.6428,-0.6417,-0.6398,-0.6412,-0.6393,-0.6397,-0.6398,-0.6387,-0.6404,-0.6394,-0.6409,-0.6399,-0.6407,-0.6388,-0.6387,-0.6389,-0.6391,-0.6387,-0.6386,-0.6382,-0.6385,-0.6398,-0.6399,-0.6399,-0.6399,0,-0.6377,-0.6388,-0.637,-0.6376,-0.6377,-0.6363,-0.6368,-0.6357,-0.6364,-0.635,-0.6348,-0.6357,-0.6347,-0.6357,-0.6348,-0.6353,-0.6327,-0.6334,-0.6327,-0.6328,-0.6306,-0.6307,-0.6237,-0.6228,-0.6298,-0.6297,-0.6297,0,-0.6347,-0.6334,-0.6339,-0.6333,-0.6333,-0.6324,-0.632,-0.6334,-0.6328,-0.6327,-0.6317,-0.6308,-0.6302,-0.6285,-0.6291,-0.6283,-0.6289,-0.6265,-0.6288,-0.6283,-0.6286,-0.6286,-0.6284,-0.626,-0.6259,-0.6258,-0.6258,0,-0.629,-0.6296,-0.6289,-0.6284,-0.6278,-0.6275,-0.6273,-0.6267,-0.6281,-0.6274,-0.6264,-0.6259,-0.625,-0.624,-0.6235,-0.6235,-0.6248,-0.625,-0.6245,-0.6239,-0.6235,-0.6235,-0.6312,-0.6252,-0.6252,-0.6253,-0.6253,-0.6253,-0.6247,-0.6236,-0.6237,-0.6229,-0.6229,-0.6226,-0.6216,-0.6222,-0.6214,-0.6207,-0.6216,-0.6203,-0.6203,-0.6196,-0.6196,-0.6185,-0.6195,-0.6188,-0.6186,-0.6183,-0.6179,-0.6238,-0.6185,-0.6185,-0.6185,-0.6185,-0.6185,0,-0.619,-0.6191,-0.6184,-0.618,-0.6173,-0.6187,-0.6185,-0.6178,-0.6167,-0.6166,-0.616,-0.6148,-0.6139,-0.6144,-0.6136,-0.6126,-0.6132,-0.6123,-0.6123,-0.6123,-0.6171,-0.6176,-0.6119,-0.6119,-0.6119,-0.6119,-0.6119,-0.6119,-0.6159,-0.6141,-0.6146,-0.6128,-0.613,-0.6118,-0.6115,-0.6113,-0.6112,-0.6098,-0.609,-0.6094,-0.6095,-0.6087,-0.6079,-0.6081,-0.6076,-0.6065,-0.6069,-0.6113,-0.612,-0.6126,-0.613,-0.6065,-0.6065,-0.6021,-0.602,-0.602]},{"header":{"parameterUnit":"m.s-1","parameterCategory":1,"la1":30.2991,"la2":30.254,"lo1":-89.0895,"lo2":-89.0444,"dy":0.0017,"dx":0.0017,"nx":28,"ny":28,"refTime":"2023-09-01T21:00:00:Z","depth":0,"parameterNumber":3,"parameterNumberName":"V-component_of_WINDS"},"data":[0,0,0,0,0,0,0,0,0,0,0,0,0,0,0,0,0,0,0,0,0,0,0,0,0,0,0,0,0,0,0,0,0,0,0,0,0,0,0,0,0,0,0,0,0,0,0,0,0,0,0,0,0,0,0,0,0,0,0.2377,0.2377,0,0.2376,0.2376,0.2376,0.2316,0.2314,0.2313,0.2311,0.2311,0.2313,0.2314,0,0,0,0,0,0,0,0,0,0,0,0,0,0.2327,0.2329,0.2377,0.2377,0.2377,0.2376,0.2376,0.2376,0.2316,0.2314,0.2312,0.231,0.2311,0.2312,0.2314,0,0,0,0,0,0,0,0,0,0,0,0,0,0.234,0.2329,0.2377,0.2347,0.2344,0.2376,0.2376,0.2376,0.2316,0.2314,0.2312,0.2309,0.231,0.2312,0.2314,0.2375,0,0,0.2321,0.2322,0,0,0,0,0,0,0,0,0.2339,0.2342,0.2351,0.2349,0.2346,0.2343,0.2358,0.2376,0.2317,0.2327,0.2311,0.2308,0.2324,0.2325,0.233,0.2375,0.2375,0.2321,0.2323,0.2324,0.2324,0,0,0,0,0,0,0,0.2339,0.2342,0.2376,0.2351,0.2348,0.2334,0.2333,0.2361,0.2339,0.2326,0.2322,0.2322,0.2322,0.2328,0.2329,0.2375,0.2321,0.2323,0.2325,0.2326,0.247,0.2473,0,0,0,0,0,0,0.2342,0.2341,0.2376,0.2376,0.2337,0.2336,0.2335,0.2347,0.2338,0.2335,0.2324,0.2319,0.2325,0.2327,0.2329,0.24,0.2324,0.2326,0.2327,0.2468,0.2471,0.2473,0,0,0,0,0,0,0.2341,0.2345,0.2377,0.2358,0.236,0.234,0.2353,0.2348,0.2354,0.2337,0.2333,0.2334,0.2324,0.2326,0.2364,0.2399,0.2327,0.2329,0.2465,0.2469,0.2472,0.2542,0,0,0,0,0,0,0.234,0.2346,0.2368,0.2359,0.2362,0.2412,0.2355,0.235,0.2358,0.2351,0.2345,0.2342,0.2322,0.2361,0.2366,0.2401,0.233,0.2461,0.2466,0.2471,0.2536,0.2548,0.2557,0,0,0,0,0,0.2338,0.2388,0.237,0.2374,0.239,0.2414,0.2416,0.2391,0.2361,0.2383,0.2372,0.2342,0.2394,0.2366,0.2371,0.2407,0.2459,0.2465,0.2471,0.2532,0.2545,0.2557,0,0,0,0,0,0,0.2403,0.2387,0.2366,0.2414,0.2416,0.2404,0.2432,0.2406,0.2417,0.241,0.238,0.2379,0.2422,0.2418,0.2386,0.2465,0.2421,0.2428,0.2466,0.2479,0.2489,0.249,0.2332,0,0,0,0,0,0.2423,0.2444,0.2428,0.2472,0.2474,0.2453,0.2462,0.2443,0.2444,0.2444,0.2436,0.2438,0.2454,0.2466,0.2481,0.2535,0.2533,0.2562,0.2573,0.2581,0.2588,0.2616,0.2629,0.2492,0.2492,0.2492,0,0,0.2465,0.2458,0.2473,0.2485,0.2484,0.2506,0.2454,0.248,0.2496,0.2448,0.2484,0.2478,0.2478,0.2524,0.2544,0.2522,0.2625,0.2588,0.2595,0.2597,0.2624,0.2637,0.2648,0.2496,0.2495,0.2495,0,0,0.2552,0.2549,0.2586,0.2585,0.2584,0.257,0.2578,0.257,0.2564,0.2599,0.2563,0.2582,0.2611,0.2613,0.2617,0.2704,0.2677,0.271,0.2765,0.2793,0.2804,0.2813,0.2845,0.2856,0.2716,0.2717,0.2717,0,0.2604,0.2636,0.2608,0.2636,0.2642,0.2599,0.2636,0.2637,0.2641,0.2647,0.2621,0.2657,0.2654,0.27,0.2722,0.2727,0.2736,0.2711,0.2804,0.2813,0.2822,0.2852,0.2863,0.2721,0.272,0.272,0.2719,0,0.27,0.2723,0.2753,0.2757,0.2766,0.2799,0.2776,0.2789,0.2768,0.2756,0.2792,0.2787,0.28,0.2809,0.279,0.2853,0.2839,0.281,0.2765,0.2839,0.2867,0.2878,0.2726,0.2725,0.2724,0.2723,0,0,0.283,0.2817,0.2829,0.283,0.2825,0.2842,0.2872,0.2884,0.2896,0.29,0.2925,0.295,0.2923,0.2928,0.2908,0.2933,0.3003,0.29,0.29,0.292,0.3072,0.3095,0.3108,0.2984,0.2986,0.2988,0.3072,0,0.2915,0.2966,0.2941,0.2995,0.3015,0.2974,0.3,0.3,0.299,0.3006,0.2994,0.3013,0.2975,0.2978,0.3,0.299,0.3033,0.2983,0.3007,0.3009,0.301,0.3123,0.3147,0.3227,0.3083,0.3084,0.3086,0,0.3021,0.3029,0.3085,0.3076,0.3083,0.3108,0.3116,0.3132,0.3131,0.3121,0.3127,0.3101,0.313,0.3086,0.3126,0.3092,0.3101,0.3097,0.3099,0.3101,0.3052,0.3129,0.3252,0.3264,0.3102,0.3101,0.31,0,0.3111,0.3135,0.3172,0.3174,0.3164,0.3182,0.3179,0.3175,0.3184,0.3191,0.3196,0.3207,0.3214,0.3223,0.3201,0.317,0.3244,0.3198,0.3237,0.3238,0.3256,0.3255,0.3383,0.326,0.326,0.326,0.3259,0,0.3209,0.3245,0.3212,0.3234,0.3273,0.3244,0.3284,0.3276,0.3273,0.3294,0.3259,0.3279,0.3248,0.3265,0.3248,0.3284,0.3287,0.328,0.3276,0.3284,0.3285,0.329,0.3284,0.3263,0.3262,0.3261,0.3261,0,0.3316,0.3295,0.3332,0.332,0.3317,0.3347,0.3336,0.3356,0.3343,0.3369,0.3374,0.3353,0.3371,0.335,0.3367,0.3355,0.3404,0.339,0.3404,0.3401,0.3442,0.3439,0.3578,0.3595,0.3461,0.3462,0.3463,0,0.338,0.3407,0.3397,0.3408,0.3407,0.3425,0.3433,0.3405,0.3415,0.3415,0.3436,0.3451,0.3462,0.3493,0.348,0.3492,0.3479,0.3527,0.3481,0.3489,0.3481,0.348,0.3483,0.3537,0.3539,0.354,0.3541,0,0.3497,0.3485,0.3498,0.3508,0.3519,0.3525,0.3529,0.354,0.351,0.3523,0.3541,0.355,0.3566,0.3582,0.359,0.3587,0.356,0.3555,0.3565,0.3575,0.3582,0.3579,0.3431,0.3553,0.3552,0.3551,0.355,0.355,0.3585,0.3607,0.3603,0.3619,0.3618,0.3622,0.3641,0.3629,0.3644,0.3655,0.3637,0.366,0.3658,0.3666,0.3666,0.3684,0.3663,0.3678,0.3681,0.3686,0.3692,0.3579,0.3685,0.3685,0.3684,0.3684,0.3684,0,0.37,0.3696,0.371,0.3716,0.3729,0.37,0.3703,0.3715,0.3736,0.3735,0.3746,0.3767,0.3782,0.3769,0.3782,0.3798,0.3786,0.3802,0.3801,0.3801,0.3709,0.37,0.3812,0.3812,0.3812,0.3812,0.3812,0.3812,0.3762,0.3797,0.3785,0.382,0.3814,0.3836,0.384,0.3844,0.3843,0.3868,0.388,0.3871,0.3866,0.3878,0.389,0.3886,0.3893,0.3914,0.3906,0.382,0.3808,0.3796,0.3787,0.3915,0.3915,0.3996,0.3997,0.3997]}]]